TimeCDT,TemperatureF,Dew PointF,Humidity,Sea Level PressureIn,VisibilityMPH,Wind Direction,Wind SpeedMPH,Gust SpeedMPH,PrecipitationIn,Events,Conditions,WindDirDegrees,DateUTC
12:54 AM,55.0,46.9,74,29.94,10.0,SE,5.8,-,N/A,,Clear,140,2013-09-24 05:54:00
1:54 AM,55.9,46.9,72,29.94,10.0,SE,5.8,-,N/A,,Clear,130,2013-09-24 06:54:00
2:54 AM,55.0,48.0,77,29.93,10.0,SE,6.9,-,N/A,,Clear,130,2013-09-24 07:54:00
3:54 AM,55.0,48.0,77,29.91,10.0,ESE,9.2,-,N/A,,Clear,120,2013-09-24 08:54:00
4:54 AM,54.0,48.0,80,29.92,10.0,ESE,8.1,-,N/A,,Clear,120,2013-09-24 09:54:00
5:54 AM,54.0,48.9,83,29.91,10.0,ESE,8.1,-,N/A,,Clear,120,2013-09-24 10:54:00
6:54 AM,53.1,48.0,83,29.92,10.0,ESE,6.9,-,N/A,,Clear,120,2013-09-24 11:54:00
7:54 AM,54.0,50.0,86,29.92,10.0,ESE,6.9,-,N/A,,Clear,120,2013-09-24 12:54:00
8:54 AM,60.1,52.0,75,29.91,10.0,SE,9.2,-,N/A,,Clear,130,2013-09-24 13:54:00
9:54 AM,66.0,54.0,65,29.91,10.0,ESE,8.1,-,N/A,,Scattered Clouds,120,2013-09-24 14:54:00
10:54 AM,71.1,55.9,59,29.88,10.0,SE,9.2,-,N/A,,Clear,130,2013-09-24 15:54:00
11:54 AM,73.0,57.0,57,29.88,10.0,SE,8.1,-,N/A,,Clear,130,2013-09-24 16:54:00
12:54 PM,75.0,57.0,53,29.86,10.0,ESE,12.7,18.4,N/A,,Clear,110,2013-09-24 17:54:00
1:54 PM,75.0,57.0,53,29.85,10.0,ESE,13.8,19.6,N/A,,Partly Cloudy,110,2013-09-24 18:54:00
2:54 PM,77.0,57.9,52,29.82,10.0,ESE,17.3,23.0,N/A,,Mostly Cloudy,110,2013-09-24 19:54:00
3:54 PM,78.1,57.9,50,29.82,10.0,SE,15.0,19.6,N/A,,Mostly Cloudy,130,2013-09-24 20:54:00
4:54 PM,77.0,57.0,50,29.83,10.0,ESE,11.5,-,N/A,,Clear,120,2013-09-24 21:54:00
5:54 PM,75.9,57.9,54,29.82,10.0,ESE,11.5,-,N/A,,Partly Cloudy,120,2013-09-24 22:54:00
6:54 PM,73.0,57.9,59,29.82,10.0,ENE,8.1,-,N/A,,Scattered Clouds,70,2013-09-24 23:54:00
7:54 PM,70.0,57.9,65,29.81,10.0,East,9.2,-,N/A,,Clear,80,2013-09-25 00:54:00
8:54 PM,70.0,57.9,65,29.81,10.0,East,10.4,-,N/A,,Clear,80,2013-09-25 01:54:00
9:54 PM,69.1,57.9,68,29.82,10.0,East,6.9,-,N/A,,Scattered Clouds,90,2013-09-25 02:54:00
10:54 PM,68.0,57.9,70,29.82,10.0,ENE,8.1,-,N/A,,Overcast,70,2013-09-25 03:54:00
11:54 PM,66.9,57.0,70,29.83,10.0,East,4.6,-,N/A,,Overcast,90,2013-09-25 04:54:00